Location: Castelbiague
(43.0361°N, 0.9246°E)
Time: 14:36:40
(UTC+00:00)

Cosmos 2333 Rocket - Pass Details

Date: 17 June 2021
Orbit: 841 x 861 km, 70.8° (Epoch: 04 August)

Event Time Altitude Azimuth Distance (km) Brightness Sun altitude
Exits shadow 22:37:50 - 226° (SW) 2,550 4.5 -21.1°
Reaches altitude 10° 22:38:01 10° 227° (SW) 2,488 4.4 -21.1°
Maximum altitude 22:43:31 47° 301° (WNW) 1,120 3.1 -21.4°
Drops below altitude 10° 22:49:02 10° 15° (NNE) 2,492 5.4 -21.7°
Sets 22:51:36 0° 21° (NNE) 3,428 6.2 -21.9°
